Regional Weather Roundup
Issued by NWS

Home | Current Version | Previous Version | Text Only | Print | Product List | Glossary Off
Versions: 1 2 3 4 5 6 7 8 9 10 11 12 13 14 15 16 17 18 19 20 21 22 23 24 25 26 27 28 29 30 31 32 33 34 35 36 37 38 39 40 41 42 43 44 45 46 47 48 49 50

000
ASUS45 KABQ 282110
RWRNM
WEATHER ROUNDUP FOR NEW MEXICO
NATIONAL WEATHER SERVICE ALBUQUERQUE NM
300 PM MDT THU AUG 28 2014

NOTE: "FAIR" MEANS FEW OR NO CLOUDS BELOW 12,000 FEET AGL WITH NO
       SIGNIFICANT WEATHER OR OBSTRUCTIONS TO VISION.

      THIS PRODUCT IS RELEASED AS TWO VERSIONS.  ONE VERSION NEAR
      THE TOP OF THE HOUR CONTAINING PRELIMINARY DATA FROM ALBUQUERQUE
      AND OTHER STATIONS.  A FINAL VERSION WITH ADDITIONAL DATA IS
      ISSUED ABOUT 10 MINUTES AFTER THE HOUR.

NMZ501-503-504-510>518-282200-
NORTHWEST PLATEAU/NORTHCENTRAL MOUNTAINS

CITY           SKY/WX    TMP DP  RH WIND       PRES   REMARKS
FARMINGTON     SUNNY     80  40  23 NW17G29   30.15F
LOS ALAMOS     PTSUNNY   69  43  39 E5        30.25F
SANTA FE       PTSUNNY   73  41  31 CALM      30.18F
ANGEL FIRE     FAIR      64  40  41 W12G17    30.31F

$$
NMZ402-403-502-505>509-282200-
WESTCENTRAL MOUNTAINS/SOUTHWEST MOUNTAINS

CITY           SKY/WX    TMP DP  RH WIND       PRES   REMARKS
GALLUP         FAIR      79  41  25 N15G23    30.24F
SILVER CITY    FAIR      84  34  16 NW10G23   30.16F

$$
NMZ407-409-411-412-282200-
SOUTHERN DESERTS

CITY           SKY/WX    TMP DP  RH WIND       PRES   REMARKS
LORDSBURG      FAIR      88  43  20 SW7G18    30.07F
DEMING         FAIR      89  43  20 MISG      30.05F
LAS CRUCES     FAIR      87  39  18 NW3       30.08F
HOLLOMAN AFB   SUNNY     89  43  19 W10G18    30.03F
ALAMOGORDO     SUNNY     90  43  19 NW10G17   30.05F
T OR C         FAIR      84  44  24 CALM      30.10F

$$
NMZ519>523-282200-
CENTRAL VALLEYS/CENTRAL HIGHLANDS

CITY           SKY/WX    TMP DP  RH WIND       PRES   REMARKS
ALBUQUERQUE    MOSUNNY   81  41  24 NW13      30.15F
DOUBLE EAGLE   MOSUNNY   79  43  27 W12G24    30.19F
MORIARTY ARPT  FAIR      76  41  28 NW13G23   30.20F
CLINES CORNERS MOSUNNY   74  41  30 NW20G31   30.22F
BELEN          FAIR      82  40  22 NW14G21   30.14F
SOCORRO        PTSUNNY   83  45  25 SE9       30.11F

$$
NMZ524>526-539-540-282200-
SOUTHCENTRAL MOUNTAINS

CITY           SKY/WX    TMP DP  RH WIND       PRES   REMARKS
RUIDOSO        SUNNY     75  41  29 NW14G28   30.24F

$$
NMZ527>531-282200-
NORTHEAST HIGHLANDS/NORTHEAST PLAINS

CITY           SKY/WX    TMP DP  RH WIND       PRES   REMARKS
LAS VEGAS      PTSUNNY   72  39  30 E9        30.19F
RATON          PTSUNNY   68  46  45 NE15      30.17F
CLAYTON        CLOUDY    78  46  32 N12       30.08F

$$
NMZ532>537-282200-
EASTCENTRAL PLAINS

CITY           SKY/WX    TMP DP  RH WIND       PRES   REMARKS
TUCUMCARI      MOSUNNY   90  40  17 CALM      29.97F
CANNON AFB     SUNNY     89  44  21 W13G18    30.01F
CLOVIS AIRPORT   N/A     90  45  20 W18G25    30.02F

$$
NMZ028-029-538-282200-
SOUTHEAST PLAINS

CITY           SKY/WX    TMP DP  RH WIND       PRES   REMARKS
ROSWELL        MOSUNNY   92  48  22 W7        29.98F
CARLSBAD       SUNNY     95  51  22 MISG      29.94F
HOBBS          PTSUNNY   91  55  29 NW7       29.97F


$$


USA.gov is the U.S. government's official web portal to all federal, state and local government web resources and services.